Miscellaneous Local Product
Issued by NWS North Platte, NE

Home | Current Version | Previous Version | Text Only | Print | Product List | Glossary Off
Versions: 1 2 3 4 5 6 7 8 9 10 11 12 13 14 15 16 17 18 19 20 21 22 23 24 25 26 27 28 29 30 31 32 33 34 35 36 37 38 39 40 41 42 43 44 45 46 47 48 49 50

000
AXUS43 KLBF 260710
MISLBF


WESTERN AND NORTH CENTRAL NEBRASKA HOURLY WEATHER ROUNDUP
NATIONAL WEATHER SERVICE NORTH PLATTE NE
200 AM CDT TUE JUL 26 2016

NOTE: "FAIR" INDICATES FEW OR NO CLOUDS BELOW 12,000 FEET WITH NO
SIGNIFICANT WEATHER AND/OR OBSTRUCTIONS TO VISIBILITY.

NOTE: STATIONS NOT REPORTING VARIABLES SUCH AS SKY/WEATHER OR
PRESSURE ARE PROVIDED BY RAWS AND APRS NETWORKS AND ARE NOT UNDER
NATIONAL WEATHER SERVICE QUALITY CONTROL.

...OBSERVATIONS IN AND NEAR THE EASTERN PANHANDLE OF NEBRASKA...

CITY           SKY/WX    TMP DP  RH WIND       PRES   REMARKS
PINE RIDGE     CLEAR     75  63  66 S20G25    30.05F
CHADRON        CLEAR     78  61  55 S23G32    30.03F
ALLIANCE       CLEAR     67  62  84 SE9       30.11S
SIDNEY         CLEAR     70  62  76 S16       30.14F
CRESCENT LAKE    N/A     67  64  89 S6          N/A
$$

...OBSERVATIONS IN NORTHERN NEBRASKA AND FAR SOUTHERN SOUTH DAKOTA...

CITY           SKY/WX    TMP DP  RH WIND       PRES   REMARKS
WINNER         FAIR      75  58  55 S14       30.05F
VALENTINE      CLEAR     74  62  66 S15G24    30.08F
THEDFORD       CLEAR     70  66  86 SE9       30.12F
AINSWORTH      CLEAR     70  62  77 S9        30.10F
O`NEILL        CLEAR     67  62  82 S8        30.11F
ORD            CLEAR     67  61  81 CALM      30.11S
BROKEN BOW     CLEAR     66  63  90 SE5       30.12F
VALENTINE NWR    N/A     70  64  81 S9          N/A
BUTTE            N/A     69  62  80 SE7         N/A
HALSEY           N/A     71  61  70 SE7G14      N/A
EWING            N/A     63  61  94 CALM        N/A
$$

...OBSERVATIONS IN SOUTHWEST NEBRASKA AND FAR NORTHEAST COLORADO...

CITY           SKY/WX    TMP DP  RH WIND       PRES   REMARKS
WRAY           FAIR      68  63  83 E8        30.14F
HOLYOKE          N/A     66  63  88 W7        30.14F
IMPERIAL       CLEAR     69  63  81 S12       30.11F
OGALLALA       CLEAR     70  63  78 NE6       30.11F
NORTH PLATTE   CLEAR     71  64  78 SE7       30.12R
MCCOOK         MOCLDY    71  64  78 S3        30.11F
LEXINGTON      CLEAR     69  61  76 SE8       30.12S
STAPLETON        N/A     66  64  92 CALM        N/A
GOTHENBURG       N/A     69  62  79 SE3         N/A
CALLAWAY         N/A     67  64  89 S8          N/A
$$

...OBSERVATIONS IN CENTRAL LINCOLN COUNTY AREA...

CITY           SKY/WX    TMP DP  RH WIND       PRES   REMARKS
N.P. AIRPORT   CLEAR     71  64  78 SE7       30.12R
N.P. DOWNTOWN    N/A     72  65  78 MISG        N/A
N.P. SOUTHEAST   N/A     71  65  81 S3          N/A
N.P. HILLCREST   N/A     70  65  83 SE7         N/A
$$

...SOME OBSERVATIONS FROM AROUND THE REGION...

CITY           SKY/WX    TMP DP  RH WIND       PRES   REMARKS
DENVER         PTCLDY    76  46  34 S20G26    30.15F
LARAMIE        CLOUDY    59  46  62 S8        30.29F
CHEYENNE       CLEAR     64  55  72 W8        30.21F
SCOTTSBLUFF    CLEAR     69  62  78 E10       30.09F
RAPID CITY     CLEAR     73  60  63 SE12      30.03S
BISMARCK       CLOUDY    74  69  85 NE12      29.95S
PIERRE         CLEAR     75  57  53 E8        29.98S
SIOUX FALLS    CLEAR     73  63  70 S8        30.08S
OMAHA          PTCLDY    71  66  84 CALM      30.09S
GRAND ISLAND   CLEAR     69  62  78 SE7       30.12F
KANSAS CITY    MOCLDY    73  69  87 NE6       30.06S
WICHITA        CLOUDY    77  72  84 E5        30.05F
OKLAHOMA CITY  TSTM      73  72  96 E8        30.05S
DALLAS         MOCLDY    79  71  76 S6        29.94S
AMARILLO       CLOUDY    72  59  63 W8        30.13F
DODGE CITY     CLEAR     69  67  93 E7        30.11F
HAYS           PTCLDY    70  61  73 E6        30.10F
GOODLAND       CLOUDY    69  64  84 SE12      30.13F
$$




USA.gov is the U.S. government's official web portal to all federal, state and local government web resources and services.